Location: Red Deer
(52.2681°N, 113.8112°W)
Time: 04:06:58
(UTC-06:00)

AO-92 - Visible Passes

Search period start: 22 May 2022 00:00
Search period end: 01 June 2022 00:00
Orbit: 473 x 485 km, 97.4° (Epoch: 21 May)

Date Brightness Start Highest point End Pass type
(mag) Time Alt. Az. Time Alt. Az. Time Alt. Az.
22 May ? 00:08:12 17° SSW 00:10:18 30° W 00:13:29 10° NNW visible
22 May ? 23:41:49 20° S 23:44:07 59° WSW 23:47:39 10° NNW visible
23 May ? 23:15:24 17° SSE 23:18:00 69° ENE 23:21:33 10° N visible
24 May ? 00:50:28 10° WSW 00:51:47 12° W 00:53:07 10° WNW visible
24 May ? 22:48:58 12° SE 22:51:57 35° ENE 22:55:13 10° N visible
25 May ? 00:23:12 13° SW 00:25:24 21° W 00:28:10 10° NW visible
25 May ? 22:23:18 10° ESE 22:25:57 20° ENE 22:28:37 10° NNE visible
25 May ? 23:56:43 17° SSW 23:59:04 39° W 00:02:26 10° NNW visible
26 May ? 23:30:13 17° S 23:32:48 80° WSW 23:36:22 10° NNW visible
27 May ? 23:03:41 14° SE 23:06:36 51° ENE 23:10:03 10° N visible
28 May ? 00:38:05 10° SW 00:40:14 15° W 00:42:23 10° NW visible
28 May ? 22:37:26 10° SE 22:40:27 27° ENE 22:43:30 10° N visible
29 May ? 00:11:20 14° SSW 00:13:45 28° W 00:16:51 10° NW visible
29 May ? 23:44:44 17° S 23:47:20 54° W 23:50:49 10° NNW visible
30 May ? 23:18:06 15° SSE 23:20:59 75° ENE 23:24:31 10° N visible
31 May ? 00:53:50 10° WSW 00:54:47 11° W 00:55:46 10° WNW visible
31 May ? 22:51:27 10° SE 22:54:41 37° ENE 22:58:00 10° N visible
